Погода в Брандоне

Канада     49°50′29″N   99°57′40″W
темп.,
°C
ветер,
м/с
пор.,
м/с
влажн.,
%
обл.,
%
осадки,
мм/ч
давл.,
гПа
погр.,
м
12 мая, ср
ср1201:00+10ююз34345 0.0 102351
04:00+9юз343643 0.0 102341
07:00+8юз364732 0.0 1024112
10:00+15юз343498 0.0 1022549
13:00+19юз5524100 0.0 10213316
16:00+20юз5625100 0.0 10203004
19:00+18юз463498 0.0 10201196
22:00+12зюз6116790 0.2 1021244
13 мая, чт
чт1301:00+11ююз487387 0.2 1020131
04:00+9зюз368227 0.1 1020108
07:00+9зюз238220 0.1 102087
10:00+15зюз33555 0.0 1019593
13:00+19юз333616 0.0 10182179
16:00+18ююв874996 0.1 1017927
19:00+17ю454617 0.9 1017581
22:00+13з116588 0.1 101711
14 мая, пт
пт1401:00+11ссв1178100 1.3 101711
04:00+11зюз1178100 0.0 101813
07:00+10св238139 0.0 101870
10:00+15всв22599 0.0 1018495
13:00+20в214141 0.0 10171699
16:00+20ю013486 0.0 10162115
19:00+21всв323443 0.0 10151818
22:00+13ююз23675 0.0 101650
15 мая, сб
сб1501:00+12ююз22595 0.0 101718
04:00+11ююз336574 0.0 101742
07:00+11ююз11685 0.0 101711
10:00+18ююв33464 0.0 1016523
13:00+22ю33300 0.0 10152351
16:00+24ююз34255 0.0 10133042
19:00+23зюз342435 0.0 10122921
22:00+18ю714442 0.0 1012428
16 мая, вс
вс1601:00+17ююз6154933 0.0 1013437
04:00+14ююз41163100 0.1 1013237
07:00+14юз613705 0.1 1012356
10:00+19зюз71054100 0.0 1013680
13:00+24зюз783960 0.0 10121798
16:00+24з573597 0.0 10112265
19:00+25сз453165 0.0 10111997
22:00+16в5117485 0.0 1014278